User: anonymous   Login
Location: Unspecified
(0.0000°N, 0.0000°E)
Time: 09:12:09
(UTC+00:00)
Language:

BEESAT - Orbit

View from above orbital plane
View from above orbital plane
View from above satellite
View from above satellite

Ground track
Ground track

The orbit data is extracted from the following two-line orbital elements,

1 35933U 09051C   19143.14882450  .00000079  00000-0  28862-4 0  9994
2 35933  98.5884 310.0946 0004619 257.1031 102.9650 14.56367082513025
Epoch (UTC): 23 May 2019 03:34:18
Eccentricity: 0.0004619
inclination: 98.5884°
perigee height: 701 km
apogee height: 708 km
right ascension of ascending node: 310.0946°
argument of perigee: 257.1031°
revolutions per day: 14.56367082
mean anomaly at epoch: 102.9650°
orbit number at epoch: 51302

The dashed part of the orbit path shows where the satellite is in the earth's shadow,  

DLR